Погода в Тинаках

Россия / Астраханская область     46°24′22″N   47°56′14″E
темп.,
°C
ветер,
м/с
пор.,
м/с
влажн.,
%
обл.,
%
осадки,
мм/ч
давл.,
гПа
погр.,
м
29 июня, ср
ср2901:00+25з61132100 0.0 1010286
04:00+24ссв51047100 0.0 1009436
07:00+23св8104085 0.0 1011590
10:00+24св7741100 0.1 1013961
13:00+27св553384 0.2 10131357
16:00+29ссв552513 0.2 10121817
19:00+28с55200 0.0 10121900
22:00+23с49220 0.0 1013245
30 июня, чт
чт3001:00+20ссв48260 0.0 1014198
04:00+18св49361 0.0 1014231
07:00+20св46409 0.0 1015380
10:00+24ссв43286 0.0 10151650
13:00+27с43232 0.0 10142258
16:00+28с44225 0.0 10132399
19:00+26ссз432581 0.0 10122184
22:00+22с35330 0.0 1013160
1 июля, пт
пт101:00+20св233317 0.0 101365
04:00+19всв233381 0.0 101248
07:00+21в1130100 0.0 101288
10:00+24сз222583 0.0 10121277
13:00+28зсз34225 0.0 10112716
16:00+29сз762233 0.0 10102928
19:00+27ссз462590 0.0 10102418
22:00+23св5932100 0.0 1011513
2 июля, сб
сб201:00+21св354198 0.0 1011277
04:00+20ссв454396 0.0 1011241
07:00+19с683795 0.0 1012536
10:00+22ссз78300 0.0 10121618
13:00+24сз810303 0.0 10122234
16:00+25ссз911295 0.0 10112620
19:00+23ссз912340 0.0 10122175
22:00+20ссз510474 0.0 1014557
3 июля, вс
вс301:00+18сз511510 0.0 1013398
04:00+17зсз410570 0.0 1013260
07:00+19сз510470 0.0 1014461
10:00+24сз78310 0.0 10142231
13:00+27сз77243 0.0 10142530
16:00+28сз66222 0.0 10132790
19:00+28сз562326 0.0 10132161
22:00+25ссз342996 0.0 1015199